Talkeetna, AK

8:10 AM AKDT on July 27, 2017 (GMT -0800)
Talkeetna

Weather History for PATK - December, 2011

Change the Weather History Date:

Saturday, December 10, 2011

  Actual Average Record
Temperature  
Mean Temperature 22 °F -  
Max Temperature 26 °F 19 °F 42 °F (1985)
Min Temperature 17 °F 2 °F -39 °F (1964)
Degree Days  
Heating Degree Days 44    
Moisture  
Dew Point 20 °F    
Average Humidity 85    
Maximum Humidity 96    
Minimum Humidity 71    
Precipitation  
Precipitation 0.01 in - - ()
Sea Level Pressure  
Sea Level Pressure 29.92 in    
Wind  
Wind Speed 4 mph (NNE)    
Max Wind Speed 10 mph    
Max Gust Speed 18 mph    
Visibility 8 miles    
Events Snow    
Averages and records for this station are not official NWS values.
T = Trace of Precipitation, MM = Missing Value Source: NWS Daily Summary

Daily Weather History Graph

Daily Weather History Graph

Search for Another Location

Airport or City:

Trip Planner

Search our weather history database for the weather conditions in past years. The results will help you decide how hot, cold, wet, or windy it might be!

Date:

Astronomy

Dec. 10, 2011 Rise Set
Actual Time 10:15 AM AKST 3:30 PM AKST
Civil Twilight 9:09 AM AKST 4:36 PM AKST
Nautical Twilight 8:07 AM AKST 5:38 PM AKST
Astronomical Twilight 7:12 AM AKST 6:33 PM AKST
Moon 3:47 PM AKST (12/10) 10:31 AM AKST (12/10)
Length of Visible Light 7h 26m
Length of Day
5h 15m
Full, 100% of the Moon is Illuminated
Dec 10
Full
Dec 17
Last Quarter
Dec 24
New
Dec 31
First Quarter
Jan 8
Full

Hourly Weather History & Observations

Time (AKST) Temp. Windchill Dew Point Humidity Pressure Visibility Wind Dir Wind Speed Gust Speed Precip Events Conditions
12:53 AM 26.1 °F - 25.0 °F 96% 30.12 in 8.0 mi Calm Calm - 0.00 in   Overcast
1:53 AM 26.1 °F - 25.0 °F 96% 30.13 in 2.5 mi Calm Calm - 0.00 in Snow Light Snow
2:02 AM 26.6 °F - 24.8 °F 93% 30.11 in 3.0 mi Calm Calm - 0.00 in Snow Light Snow
3:53 AM 26.1 °F - 25.0 °F 96% 30.13 in 10.0 mi Calm Calm - 0.00 in   Overcast
4:53 AM 26.1 °F - 25.0 °F 96% 30.12 in 10.0 mi Calm Calm - N/A   Overcast
5:53 AM 26.1 °F - 24.1 °F 92% 30.12 in 10.0 mi Calm Calm - N/A   Overcast
6:53 AM 26.1 °F - 24.1 °F 92% 30.11 in 10.0 mi Calm Calm - N/A   Overcast
7:53 AM 23.0 °F 15.8 °F 19.9 °F 88% 30.10 in 10.0 mi NE 5.8 mph - N/A   Overcast
8:12 AM 21.2 °F 14.9 °F 19.4 °F 93% 30.07 in 10.0 mi NNE 4.6 mph - N/A   Scattered Clouds
8:53 AM 19.9 °F 12.1 °F 17.1 °F 89% 30.07 in 10.0 mi NE 5.8 mph - N/A   Clear
9:53 AM 18.0 °F - 14.0 °F 84% 30.09 in 10.0 mi Calm Calm - N/A   Clear
10:53 AM 17.1 °F 10.0 °F 14.0 °F 88% 30.06 in 10.0 mi North 4.6 mph - N/A   Clear
11:53 AM 17.1 °F 10.0 °F 14.0 °F 88% 30.02 in 10.0 mi NE 4.6 mph - N/A   Clear
1:53 PM 21.0 °F 13.4 °F 17.1 °F 85% 29.99 in 10.0 mi North 5.8 mph - N/A   Clear
2:53 PM 21.0 °F 13.4 °F 17.1 °F 85% 29.96 in 10.0 mi North 5.8 mph - N/A   Clear
3:53 PM 23.0 °F 14.7 °F 17.1 °F 78% 29.90 in 10.0 mi NNE 6.9 mph - N/A   Clear
4:53 PM 23.0 °F 13.1 °F 17.1 °F 78% 29.85 in 10.0 mi NNE 9.2 mph 18.4 mph N/A   Clear
5:53 PM 24.1 °F 13.7 °F 17.1 °F 75% 29.83 in 10.0 mi NNE 10.4 mph - N/A   Mostly Cloudy
6:53 PM 24.1 °F 15.2 °F 17.1 °F 75% 29.78 in 10.0 mi NNE 8.1 mph 18.4 mph N/A   Overcast
7:53 PM 25.0 °F 19.3 °F 17.1 °F 72% 29.76 in 10.0 mi Variable 4.6 mph - N/A   Overcast
8:53 PM 26.1 °F 17.6 °F 18.0 °F 71% 29.76 in 10.0 mi NNE 8.1 mph - N/A   Overcast
9:27 PM 24.8 °F 16.9 °F 17.6 °F 74% 29.73 in 3.0 mi NE 6.9 mph - 0.00 in Snow Light Snow
9:35 PM 24.8 °F 14.6 °F 19.4 °F 80% 29.72 in 2.0 mi NE 10.4 mph - 0.00 in Snow Light Snow
9:53 PM 25.0 °F 15.5 °F 19.9 °F 81% 29.74 in 3.0 mi NE 9.2 mph - 0.01 in Snow Light Snow
10:00 PM 24.8 °F 15.3 °F 19.4 °F 80% 29.71 in 1.8 mi NE 9.2 mph - 0.00 in Snow Light Snow
10:40 PM 24.8 °F 14.6 °F 21.2 °F 86% 29.68 in 3.0 mi NE 10.4 mph - 0.00 in Snow Light Snow
10:51 PM 24.8 °F 14.6 °F 21.2 °F 86% 29.67 in 6.0 mi NNE 10.4 mph - 0.00 in Snow Light Snow
10:53 PM 25.0 °F 16.3 °F 21.0 °F 85% 29.70 in 6.0 mi NNE 8.1 mph - 0.00 in Snow Light Snow
11:53 PM 25.0 °F 14.8 °F 19.9 °F 81% 29.68 in 10.0 mi NNE 10.4 mph - 0.00 in   Overcast